FENGYUN 1C DEB, 31388

Orbit data source: Space-Track

FENGYUN 1C DEB, 31388 is space debris in SSO originally from a launch on Mon, 10 May 1999 UTC launched from the Taiyaun Space Center, China (TSC). Fengyun 1C debris stems from the Chinese weather satellite Fengyun-1C, which was intentionally destroyed by a Chinese anti-satellite missile in 2007. This event dramatically increased the amount of space debris, with thousands of trackable fragments posing hazards to satellites and human spaceflight. The Fengyun 1C debris cloud has become a focal point in discussions about space sustainability and the need for international regulations to prevent the creation of new debris.

Loading next visibility...
Identifier
31388, 1999-025BSU
Orbit
SSO
Country
Flag of CNCN / PRC
Related business
Manufacturer
Unknown
Mission
Spacecraft
Bus & Motor
Unknown
Mass
Unknown
Launch date (UTC)
1999-05-10 (27 years ago)
Launch vehicle
Unknown
Launch site
Taiyaun Space Center, China (TSC)
Object type
Payload
Rocket body
Debris
Shape & HBR
Unknown shape, 0.1 m
Radar Cross Section
Medium (>0.1 m² and <1 m²)

Expand to show TLE details & history
Last TLE update: 20 hours ago

TLE from 20 hours ago
0 FENGYUN 1C DEB
1 31388U 99025BSU 26165.77977030  .00000293  00000-0  19754-3 0  9991
2 31388  98.8193 154.2596 0047831  45.2686  77.6086 14.07523939990307
Epoch: 2026-06-14T18:42Z
TLE epoch observation values (Epoch: 2026-06-14T18:42:52.153Z)
Latitude
55.67331°
Longitude
163.52966°
Altitude
869.792 km
Speed
7.427 km/s
True Right ascension
23h 09m 17s
True Declination
55° 30' 56"
Sunlit
Object was in daylight at epoch
Visualization orbit readout
Latitude
Unknown
Longitude
Unknown
Altitude
Unknown
Speed
Unknown
Apparent Right ascension
Unknown
Apparent Declination
Unknown
Sunlit
N/A
Visualization observer readout
Local Sidereal Time
01:13:45
Azimuth
Unknown
Elevation
Unknown
Doppler factor
Unknown
Orbital elements
Apogee altitude
899.682 km
Perigee altitude
830.393 km
Semi-major axis
7,243.175 km
Eccentricity
0.00478
Inclination
98.8193°
RAAN
154.2596°
Arg. of periapsis
45.2686°
True anomaly
78.14461°
Mean anomaly
77.6086°
Eccentric anomaly
77.87654°
Mean motion
3.52087 °/min
Orbital period
102.25 mins
BSTAR
0.00019754
Loading maneuver chart data...
Computing Atmospheric mass density...
Loading historical data...
Loading historical data...
Loading historical data...
Loading historical data...
Loading historical data...
Loading historical data...
Loading historical data...

Documentation

Showing up to 5 results
|